User: anonymous   Login
Location: Radomski Observatory
(40.2854°N, 79.5145°W)
Time: 21:25:21
(UTC-04:00)
Language:

Uosat F - Orbit

View from above orbital plane
View from above orbital plane
View from above satellite
View from above satellite

Ground track
Ground track

The orbit data is extracted from the following two-line orbital elements,

1 21575U 91050B   17149.60830570 +.00000009 +00000-0 +17442-4 0  9997
2 21575 098.7576 165.5711 0007306 005.1061 355.0200 14.40798517358400
Epoch (UTC): 29 May 2017 14:35:57
Eccentricity: 0.0007306
inclination: 98.7576°
perigee height: 750 km
apogee height: 761 km
right ascension of ascending node: 165.5711°
argument of perigee: 5.1061°
revolutions per day: 14.40798517
mean anomaly at epoch: 355.0200°
orbit number at epoch: 35840

The dashed part of the orbit path shows where the satellite is in the earth's shadow,  

DLR